Notices

What's New in latest Release from April 7th, 2021:

- Updated Glossary, including Speed of Maximum Gust, and Total Hourly Precipitation

- Updated national and regional climate services offices contacts and prices information

- Addition of station inventory lists for 1981-2010, 1971-2000, and 1961-1990 Normals.

If you haven't already, please take our survey and provide feedback about our website: https://eccc.sondage-survey.ca/f/LanguageSelection.aspx?s=442ca660-fcf1-47c0-95a9-59707d6fd709

Hourly Data Report for April 25, 2018

KENORA A
ONTARIO
Current Station Operator: NAVCAN

49°47'18.000" N
94°21'47.000" W
409.70 m
6034076
71850
YQK

Download Data

Hourly Data (April 2018)
Hourly Data Report for April 25, 2018
TIME
LST
Temp Definition
°C
Dew Point Definition
°C
Rel Hum Definition
%
Precip. Amount Definition
mm

Wind Dir Definition
10's deg

Wind Spd Definition
km/h
Visibility Definition
km
Stn Press Definition
kPa
Hmdx Definition


Wind Chill Definition


Weather Definition


00:00 0.8 -6.7 58   22 12 24.1 97.57     Clear
01:00 -0.2 -6.4 63   20 13 24.1 97.51   -4 LegendNANA
02:00 -0.6 -6.4 65   21 14 24.1 97.44   -5 LegendNANA
03:00 -1.1 -6.3 68   19 14 24.1 97.39   -6 Clear
04:00 -0.6 -6.4 65   20 16 24.1 97.33   -5 LegendNANA
05:00 -0.9 -6.4 66   20 17 24.1 97.25   -6 LegendNANA
06:00 0.3 -6.2 62   20 19 24.1 97.19     Mainly Clear
07:00 2.1 -5.8 56   20 22 24.1 97.11     LegendNANA
08:00 4.5 -5.2 50   20 23 32.2 96.99     LegendNANA
09:00 6.0 -4.5 47   20 29 32.2 96.87     Mostly Cloudy
10:00 7.8 -3.2 46   20 26 24.1 96.78     LegendNANA
11:00 9.1 -2.9 43   20 33 32.2 96.69     LegendNANA
12:00 10.9 -2.1 40   21 34 32.2 96.59     Cloudy
13:00 12.7 -1.1 38   20 32 32.2 96.45     LegendNANA
14:00 13.7 0.0 39   20 30 32.2 96.36     LegendNANA
15:00 14.8 0.8 38   22 29 24.1 96.27     Cloudy
16:00 13.9 0.6 40   20 26 32.2 96.18     LegendNANA
17:00 13.1 -0.1 40   20 24 32.2 96.12     LegendNANA
18:00 12.1 0.7 45   20 21 32.2 96.07     Cloudy
19:00 10.8 0.4 48   20 17 32.2 96.03     LegendNANA
20:00 10.0 0.3 51   20 17 32.2 95.97     LegendNANA
21:00 9.2 0.1 53   19 17 24.1 95.92     Mostly Cloudy
22:00 8.8 0.0 54   21 17 24.1 95.86     LegendNANA
23:00 8.5 0.2 56   23 14 24.1 95.88     LegendNANA

Notes on Data Quality.

Legend

  • E = Estimated
  • M = Missing
  • NA = Not Available*
  • [empty] = Indicates an unobserved value
Date modified: